| time (UTC) | temp F | wind direction | speed knots | gust knots | rain 1hr in | rain 24hr in | rain mn in | humidity % | barometer mb |
| 20260506155511 | 54 | 329 | 1.7 | 4.3 | 0.00 | 1.41 | 0.45 | 73 | 1011.2 |
| 20260506154012 | 53 | 323 | 0.0 | 2.6 | 0.00 | 1.41 | 0.45 | 76 | 1011.4 |
| 20260506152012 | 51 | 9 | 0.0 | 1.7 | 0.00 | 1.41 | 0.45 | 77 | 1010.8 |
| 20260506151008 | 51 | 360 | 0.0 | 3.5 | 0.00 | 1.41 | 0.45 | 78 | 1010.8 |
| 20260506150507 | 51 | 5 | 1.7 | 5.2 | 0.00 | 1.41 | 0.45 | 79 | 1010.8 |
| 20260506150018 | 50 | 323 | 0.9 | 5.2 | 0.00 | 1.41 | 0.45 | 79 | 1010.7 |
| 20260506145006 | 50 | 320 | 0.9 | 3.5 | 0.00 | 1.41 | 0.45 | 83 | 1010.4 |
| 20260506143513 | 49 | 273 | 0.9 | 2.6 | 0.00 | 1.41 | 0.45 | 82 | 1010.6 |
| 20260506141008 | 47 | 360 | 0.0 | 1.7 | 0.00 | 1.41 | 0.45 | 89 | 1010.3 |
| 20260506140512 | 47 | 5 | 0.0 | 1.7 | 0.00 | 1.41 | 0.45 | 88 | 1010.3 |
| 20260506140014 | 47 | 342 | 0.0 | 0.0 | 0.00 | 1.41 | 0.45 | 89 | 1010.5 |
| 20260506135509 | 47 | 343 | 0.0 | 0.0 | 0.00 | 1.41 | 0.45 | 90 | 1010.5 |
| 20260506135008 | 47 | 5 | 0.0 | 1.7 | 0.00 | 1.41 | 0.45 | 90 | 1010.4 |
| 20260506134010 | 46 | 352 | 0.0 | 1.7 | 0.00 | 1.41 | 0.45 | 91 | 1010.2 |
| 20260506133509 | 46 | 237 | 0.0 | 1.7 | 0.00 | 1.41 | 0.45 | 91 | 1010.3 |
| 20260506133024 | 46 | 333 | 0.0 | 2.6 | 0.00 | 1.41 | 0.45 | 91 | 1010.2 |
| 20260506132512 | 46 | 346 | 0.9 | 2.6 | 0.00 | 1.41 | 0.45 | 92 | 1010.1 |
| 20260506132015 | 46 | 5 | 0.0 | 1.7 | 0.00 | 1.41 | 0.45 | 93 | 1009.9 |
| 20260506131532 | 46 | 5 | 0.0 | 2.6 | 0.00 | 1.41 | 0.45 | 93 | 1010.0 |
| 20260506131010 | 46 | 5 | 0.9 | 2.6 | 0.00 | 1.41 | 0.45 | 93 | 1009.7 |
| 20260506130511 | 46 | 9 | 0.0 | 0.0 | 0.00 | 1.41 | 0.45 | 93 | 1009.6 |
| 20260506130026 | 46 | 345 | 0.0 | 0.0 | 0.00 | 1.41 | 0.45 | 93 | 1009.8 |
| 20260506125509 | 46 | 297 | 0.0 | 0.0 | 0.00 | 1.41 | 0.45 | 93 | 1009.7 |
| 20260506125011 | 46 | 298 | 0.0 | 0.0 | 0.00 | 1.41 | 0.45 | 94 | 1009.5 |
| 20260506124517 | 46 | 360 | 0.0 | 0.0 | 0.00 | 1.41 | 0.45 | 94 | 1009.4 |
| 20260506124011 | 46 | 311 | 0.0 | 0.0 | 0.00 | 1.41 | 0.45 | 95 | 1009.5 |
| 20260506123505 | 46 | 347 | 0.0 | 0.0 | 0.00 | 1.41 | 0.45 | 94 | 1009.3 |
| 20260506123024 | 46 | 313 | 0.0 | 1.7 | 0.00 | 1.41 | 0.45 | 94 | 1009.3 |
| 20260506122509 | 46 | 278 | 0.0 | 1.7 | 0.00 | 1.41 | 0.45 | 94 | 1009.1 |
| 20260506122007 | 46 | 278 | 0.0 | 1.7 | 0.00 | 1.41 | 0.45 | 95 | 1009.1 |
| 20260506121524 | 45 | 360 | 0.0 | 1.7 | 0.00 | 1.41 | 0.45 | 95 | 1009.0 |
| 20260506121012 | 45 | 360 | 0.0 | 1.7 | 0.00 | 1.41 | 0.45 | 95 | 1009.0 |
| 20260506120512 | 45 | 360 | 0.0 | 1.7 | 0.00 | 1.41 | 0.45 | 95 | 1009.0 |
| 20260506120036 | 45 | 360 | 0.0 | 1.7 | 0.00 | 1.41 | 0.45 | 95 | 1009.0 |
| 20260506115509 | 45 | 360 | 0.0 | 0.0 | 0.00 | 1.41 | 0.45 | 95 | 1009.1 |
| 20260506115011 | 45 | 360 | 0.0 | 0.0 | 0.00 | 1.41 | 0.45 | 95 | 1009.2 |
| 20260506114527 | 45 | 360 | 0.0 | 0.0 | 0.00 | 1.41 | 0.45 | 95 | 1009.0 |
| 20260506114010 | 45 | 360 | 0.0 | 0.0 | 0.00 | 1.41 | 0.45 | 95 | 1009.3 |
| 20260506113511 | 45 | 360 | 0.0 | 1.7 | 0.00 | 1.41 | 0.45 | 95 | 1009.2 |
| 20260506113028 | 45 | 360 | 0.0 | 1.7 | 0.00 | 1.41 | 0.45 | 95 | 1009.2 |
| 20260506112506 | 45 | 360 | 0.0 | 1.7 | 0.00 | 1.41 | 0.45 | 95 | 1008.9 |
| 20260506112010 | 45 | 44 | 0.0 | 1.7 | 0.00 | 1.41 | 0.45 | 95 | 1008.7 |
| 20260506111523 | 45 | 44 | 0.0 | 1.7 | 0.00 | 1.41 | 0.45 | 95 | 1008.4 |
| 20260506111002 | 45 | 352 | 0.0 | 0.9 | 0.00 | 1.41 | 0.45 | 95 | 1008.3 |
| 20260506110502 | 45 | 352 | 0.0 | 0.9 | 0.00 | 1.41 | 0.45 | 95 | 1008.4 |
| 20260506110003 | 45 | 325 | 0.0 | 0.0 | 0.00 | 1.41 | 0.45 | 95 | 1008.6 |
| 20260506105503 | 45 | 325 | 0.0 | 0.0 | 0.00 | 1.41 | 0.45 | 95 | 1008.7 |
| 20260506105004 | 45 | 325 | 0.0 | 1.7 | 0.00 | 1.41 | 0.45 | 95 | 1008.6 |
| 20260506104503 | 45 | 325 | 0.0 | 1.7 | 0.00 | 1.41 | 0.45 | 95 | 1008.3 |
| 20260506104005 | 45 | 5 | 0.0 | 0.0 | 0.00 | 1.41 | 0.45 | 95 | 1008.3 |
| 20260506103502 | 45 | 5 | 0.0 | 0.0 | 0.01 | 1.41 | 0.45 | 95 | 1008.3 |
| 20260506103005 | 45 | 5 | 0.0 | 0.0 | 0.01 | 1.41 | 0.45 | 95 | 1007.9 |
| 20260506102507 | 45 | 5 | 0.0 | 0.9 | 0.01 | 1.41 | 0.45 | 95 | 1007.2 |
| 20260506102004 | 45 | 5 | 0.0 | 0.9 | 0.02 | 1.41 | 0.45 | 95 | 1007.1 |
| 20260506101506 | 45 | 5 | 0.0 | 0.0 | 0.02 | 1.41 | 0.45 | 95 | 1007.3 |
| 20260506101002 | 45 | 5 | 0.0 | 0.0 | 0.02 | 1.41 | 0.45 | 95 | 1007.4 |
| 20260506100502 | 45 | 5 | 0.0 | 0.9 | 0.03 | 1.41 | 0.45 | 95 | 1007.3 |
| 20260506100004 | 45 | 5 | 0.0 | 1.7 | 0.03 | 1.41 | 0.45 | 95 | 1007.1 |
| 20260506095503 | 45 | 5 | 0.9 | 1.7 | 0.04 | 1.41 | 0.45 | 95 | 1006.9 |
| 20260506095004 | 45 | 25 | 0.0 | 3.5 | 0.05 | 1.41 | 0.45 | 95 | 1007.1 |
| 20260506094510 | 45 | 5 | 0.0 | 3.5 | 0.05 | 1.41 | 0.45 | 95 | 1007.2 |
| 20260506094005 | 45 | 352 | 0.9 | 3.5 | 0.05 | 1.41 | 0.45 | 95 | 1007.4 |
| 20260506093504 | 45 | 5 | 0.0 | 1.7 | 0.04 | 1.40 | 0.44 | 95 | 1007.6 |
| 20260506093006 | 45 | 5 | 0.0 | 1.7 | 0.04 | 1.40 | 0.44 | 95 | 1007.8 |
| 20260506092504 | 45 | 5 | 0.0 | 1.7 | 0.04 | 1.40 | 0.44 | 95 | 1007.9 |
| 20260506092004 | 45 | 5 | 0.0 | 1.7 | 0.03 | 1.39 | 0.43 | 95 | 1008.1 |
| 20260506091506 | 45 | 5 | 0.0 | 1.7 | 0.03 | 1.39 | 0.43 | 95 | 1008.0 |
| 20260506091005 | 45 | 5 | 0.0 | 1.7 | 0.04 | 1.39 | 0.43 | 94 | 1007.9 |
| 20260506090503 | 45 | 5 | 0.0 | 1.7 | 0.03 | 1.38 | 0.42 | 94 | 1007.9 |
| 20260506090004 | 45 | 5 | 0.9 | 1.7 | 0.04 | 1.38 | 0.42 | 94 | 1007.9 |
| 20260506085004 | 45 | 5 | 0.0 | 1.7 | 0.03 | 1.36 | 0.40 | 94 | 1007.9 |
| 20260506084506 | 45 | 5 | 0.0 | 1.7 | 0.04 | 1.36 | 0.40 | 94 | 1007.9 |
| 20260506084004 | 44 | 5 | 0.0 | 1.7 | 0.05 | 1.36 | 0.40 | 94 | 1007.9 |
| 20260506083503 | 45 | 5 | 0.0 | 2.6 | 0.07 | 1.36 | 0.40 | 94 | 1007.8 |
| 20260506083004 | 44 | 5 | 0.9 | 2.6 | 0.09 | 1.36 | 0.40 | 94 | 1007.7 |
| 20260506082508 | 44 | 9 | 0.9 | 2.6 | 0.10 | 1.36 | 0.40 | 94 | 1007.6 |
| 20260506082004 | 44 | 352 | 0.9 | 2.6 | 0.11 | 1.36 | 0.40 | 94 | 1007.7 |
| 20260506081505 | 44 | 5 | 0.0 | 1.7 | 0.12 | 1.36 | 0.40 | 94 | 1007.8 |
| 20260506081006 | 44 | 5 | 0.0 | 2.6 | 0.13 | 1.35 | 0.39 | 94 | 1007.8 |
| 20260506080505 | 44 | 348 | 1.7 | 3.5 | 0.14 | 1.35 | 0.39 | 94 | 1007.7 |
| 20260506073007 | 44 | 352 | 0.0 | 0.0 | 0.11 | 1.27 | 0.31 | 94 | 1007.9 |
| 20260506072504 | 44 | 352 | 0.0 | 2.6 | 0.11 | 1.26 | 0.30 | 94 | 1007.9 |
| 20260506072004 | 44 | 352 | 0.0 | 3.5 | 0.10 | 1.25 | 0.29 | 94 | 1007.6 |
| 20260506071507 | 44 | 352 | 1.7 | 3.5 | 0.10 | 1.24 | 0.28 | 94 | 1007.5 |
| 20260506071005 | 44 | 352 | 1.7 | 3.5 | 0.08 | 1.22 | 0.26 | 94 | 1007.5 |
| 20260506070506 | 45 | 5 | 1.7 | 4.3 | 0.08 | 1.21 | 0.25 | 93 | 1007.4 |
| 20260506062506 | 45 | 5 | 1.7 | 5.2 | 0.07 | 1.15 | 0.19 | 94 | 1007.3 |
| 20260506062008 | 45 | 360 | 0.9 | 3.5 | 0.08 | 1.15 | 0.19 | 94 | 1007.3 |
| 20260506061513 | 45 | 21 | 0.9 | 3.5 | 0.07 | 1.14 | 0.18 | 94 | 1007.3 |
| 20260506061009 | 45 | 352 | 1.7 | 3.5 | 0.08 | 1.14 | 0.18 | 94 | 1007.3 |
| 20260506060506 | 45 | 360 | 0.9 | 3.5 | 0.07 | 1.13 | 0.17 | 93 | 1007.4 |
| 20260506051003 | 48 | 34 | 0.9 | 1.7 | 0.08 | 1.05 | 0.10 | 94 | 1007.8 |
| 20260506050506 | 48 | 32 | 0.0 | 1.7 | 0.09 | 1.05 | 0.10 | 94 | 1007.8 |
| 20260506045005 | 48 | 22 | 0.0 | 1.7 | 0.09 | 1.04 | 0.08 | 94 | 1007.9 |
| 20260506044520 | 48 | 15 | 0.9 | 1.7 | 0.09 | 1.03 | 0.07 | 94 | 1008.0 |
| 20260506044005 | 48 | 38 | 0.9 | 1.7 | 0.10 | 1.03 | 0.07 | 94 | 1008.0 |
| 20260506043510 | 48 | 55 | 0.0 | 0.9 | 0.09 | 1.02 | 0.06 | 94 | 1008.0 |
| 20260506043017 | 49 | 11 | 0.0 | 1.7 | 0.09 | 1.01 | 0.05 | 94 | 1008.1 |
| 20260506042507 | 49 | 32 | 0.0 | 1.7 | 0.08 | 1.00 | 0.04 | 94 | 1008.1 |
| 20260506042008 | 49 | 36 | 0.9 | 2.6 | 0.09 | 1.00 | 0.04 | 94 | 1008.1 |
| 20260506041512 | 49 | 11 | 0.9 | 2.6 | 0.08 | 0.99 | 0.03 | 94 | 1008.2 |
| 20260506041007 | 49 | 13 | 0.0 | 2.6 | 0.08 | 0.98 | 0.02 | 94 | 1008.1 |
| 20260506040507 | 49 | 11 | 0.9 | 1.7 | 0.07 | 0.97 | 0.01 | 94 | 1008.1 |
| 20260506040016 | 49 | 347 | 0.0 | 1.7 | 0.06 | 0.96 | 0.00 | 94 | 1008.2 |
| 20260506035507 | 49 | 352 | 0.9 | 1.7 | 0.07 | 0.96 | 0.96 | 94 | 1008.2 |
| 20260506035009 | 49 | 360 | 0.0 | 2.6 | 0.06 | 0.95 | 0.95 | 94 | 1008.3 |
| 20260506034514 | 49 | 350 | 0.9 | 2.6 | 0.06 | 0.94 | 0.94 | 94 | 1008.4 |
| 20260506034007 | 49 | 5 | 0.9 | 2.6 | 0.05 | 0.93 | 0.93 | 94 | 1008.5 |
| 20260506033504 | 49 | 346 | 0.9 | 3.5 | 0.05 | 0.93 | 0.93 | 94 | 1008.5 |
| 20260506033014 | 49 | 352 | 0.9 | 3.5 | 0.05 | 0.92 | 0.92 | 94 | 1008.6 |
| 20260506032506 | 49 | 350 | 1.7 | 2.6 | 0.06 | 0.92 | 0.92 | 94 | 1008.6 |
| 20260506032007 | 49 | 5 | 0.9 | 2.6 | 0.06 | 0.91 | 0.91 | 94 | 1008.5 |
| 20260506031518 | 49 | 9 | 0.0 | 2.6 | 0.06 | 0.91 | 0.91 | 94 | 1008.6 |
| 20260506031008 | 49 | 68 | 0.9 | 2.6 | 0.05 | 0.90 | 0.90 | 94 | 1008.6 |
| 20260506030508 | 49 | 40 | 0.9 | 1.7 | 0.06 | 0.90 | 0.90 | 94 | 1008.4 |
| 20260506024513 | 49 | 11 | 1.7 | 3.5 | 0.11 | 0.88 | 0.88 | 94 | 1008.6 |
| 20260506024005 | 50 | 360 | 0.9 | 1.7 | 0.13 | 0.88 | 0.88 | 94 | 1008.9 |
| 20260506023509 | 50 | 9 | 0.0 | 1.7 | 0.16 | 0.88 | 0.88 | 94 | 1008.9 |
| 20260506023015 | 50 | 5 | 0.0 | 1.7 | 0.17 | 0.87 | 0.87 | 94 | 1009.1 |
| 20260506022508 | 50 | 9 | 0.0 | 1.7 | 0.18 | 0.86 | 0.86 | 94 | 1009.1 |
| 20260506022009 | 50 | 108 | 0.0 | 2.6 | 0.20 | 0.85 | 0.85 | 94 | 1009.1 |
| 20260506021518 | 50 | 352 | 0.9 | 2.6 | 0.22 | 0.85 | 0.85 | 94 | 1008.7 |
| 20260506021006 | 50 | 262 | 0.9 | 1.7 | 0.24 | 0.85 | 0.85 | 94 | 1009.1 |
| 20260506020508 | 50 | 34 | 0.0 | 1.7 | 0.26 | 0.84 | 0.84 | 94 | 1008.5 |
| 20260506020020 | 50 | 5 | 0.0 | 3.5 | 0.26 | 0.83 | 0.83 | 94 | 1008.5 |
| 20260506015508 | 50 | 5 | 0.9 | 6.1 | 0.28 | 0.82 | 0.82 | 93 | 1008.2 |
| 20260506015007 | 50 | 5 | 1.7 | 6.1 | 0.30 | 0.81 | 0.81 | 93 | 1008.1 |
| 20260506014008 | 51 | 348 | 1.7 | 4.3 | 0.30 | 0.75 | 0.75 | 93 | 1008.1 |
| 20260506013013 | 51 | 5 | 0.9 | 3.5 | 0.28 | 0.70 | 0.70 | 93 | 1008.2 |
| 20260506012508 | 51 | 360 | 0.9 | 3.5 | 0.27 | 0.68 | 0.68 | 93 | 1008.1 |
| 20260506012013 | 52 | 299 | 0.0 | 3.5 | 0.25 | 0.65 | 0.65 | 94 | 1008.1 |
| 20260506011517 | 52 | 40 | 0.9 | 3.5 | 0.24 | 0.63 | 0.63 | 93 | 1007.8 |
| 20260506011008 | 52 | 5 | 0.9 | 2.6 | 0.22 | 0.61 | 0.61 | 93 | 1007.8 |
| 20260506010510 | 52 | 5 | 0.9 | 2.6 | 0.20 | 0.58 | 0.58 | 93 | 1007.8 |
| 20260506010018 | 52 | 5 | 0.0 | 0.0 | 0.19 | 0.57 | 0.57 | 93 | 1007.7 |
| 20260506005507 | 52 | 32 | 0.0 | 0.0 | 0.17 | 0.54 | 0.54 | 93 | 1007.6 |
| 20260506005010 | 53 | 32 | 0.0 | 1.7 | 0.14 | 0.51 | 0.51 | 93 | 1007.6 |
| 20260506004519 | 53 | 19 | 0.0 | 1.7 | 0.10 | 0.47 | 0.47 | 93 | 1007.8 |
| 20260506004010 | 53 | 46 | 0.0 | 1.7 | 0.08 | 0.45 | 0.45 | 93 | 1007.7 |
| 20260506002012 | 54 | 299 | 0.0 | 0.9 | 0.05 | 0.40 | 0.40 | 92 | 1007.6 |
| 20260506001519 | 54 | 352 | 0.0 | 1.7 | 0.05 | 0.39 | 0.39 | 92 | 1007.4 |
| 20260506001009 | 55 | 352 | 0.0 | 1.7 | 0.06 | 0.39 | 0.39 | 92 | 1007.4 |
| 20260506000509 | 55 | 332 | 0.0 | 2.6 | 0.06 | 0.38 | 0.38 | 92 | 1007.5 |
| 20260506000022 | 55 | 332 | 0.0 | 2.6 | 0.07 | 0.38 | 0.38 | 91 | 1007.6 |
| 20260505235508 | 56 | 36 | 0.9 | 2.6 | 0.08 | 0.37 | 0.37 | 93 | 1007.4 |
| 20260505235007 | 56 | 23 | 0.0 | 0.0 | 0.10 | 0.37 | 0.37 | 93 | 1007.5 |
| 20260505234546 | 56 | 23 | 0.0 | 0.0 | 0.12 | 0.37 | 0.37 | 93 | 1007.3 |
| 20260505234008 | 57 | 23 | 0.0 | 0.0 | 0.18 | 0.37 | 0.37 | 93 | 1007.4 |
| 20260505233507 | 57 | 23 | 0.0 | 0.0 | 0.26 | 0.37 | 0.37 | 93 | 1007.5 |
| 20260505233021 | 57 | 23 | 0.0 | 0.0 | 0.32 | 0.37 | 0.37 | 93 | 1007.4 |
| 20260505232509 | 57 | 293 | 0.0 | 0.0 | 0.35 | 0.36 | 0.36 | 92 | 1007.7 |
| 20260505232009 | 57 | 294 | 0.0 | 0.0 | 0.34 | 0.35 | 0.35 | 92 | 1007.8 |
| 20260505231008 | 57 | 293 | 0.0 | 0.0 | 0.32 | 0.33 | 0.33 | 92 | 1007.8 |
| 20260505230508 | 57 | 293 | 0.0 | 0.0 | 0.31 | 0.32 | 0.32 | 92 | 1007.9 |
| 20260505230018 | 57 | 293 | 0.0 | 0.0 | 0.30 | 0.31 | 0.31 | 92 | 1007.8 |
| 20260505225510 | 57 | 316 | 0.0 | 0.0 | 0.28 | 0.29 | 0.29 | 91 | 1007.9 |
| 20260505225007 | 57 | 323 | 0.0 | 0.0 | 0.26 | 0.27 | 0.27 | 91 | 1007.9 |
| 20260505224507 | 58 | 360 | 0.0 | 0.0 | 0.24 | 0.25 | 0.25 | 91 | 1007.9 |
| 20260505224005 | 58 | 5 | 0.0 | 0.0 | 0.18 | 0.19 | 0.19 | 91 | 1007.9 |
| 20260505223504 | 58 | 291 | 0.0 | 0.0 | 0.10 | 0.11 | 0.11 | 90 | 1008.2 |
| 20260505223011 | 58 | 311 | 0.0 | 0.0 | 0.04 | 0.05 | 0.05 | 90 | 1007.7 |
| 20260505222503 | 59 | 352 | 0.0 | 0.0 | 0.00 | 0.01 | 0.01 | 89 | 1007.4 |
| 20260505222008 | 59 | 352 | 0.0 | 0.0 | 0.00 | 0.01 | 0.01 | 89 | 1007.3 |
| 20260505221514 | 59 | 352 | 0.0 | 0.0 | 0.00 | 0.01 | 0.01 | 89 | 1007.3 |
| 20260505221010 | 59 | 352 | 0.0 | 0.0 | 0.00 | 0.01 | 0.01 | 88 | 1007.3 |
| 20260505220505 | 59 | 352 | 0.0 | 0.0 | 0.00 | 0.01 | 0.01 | 88 | 1007.4 |
| 20260505220020 | 59 | 360 | 0.0 | 0.0 | 0.00 | 0.01 | 0.01 | 87 | 1007.2 |
| 20260505215508 | 59 | 305 | 0.0 | 0.0 | 0.00 | 0.01 | 0.01 | 87 | 1007.4 |
| 20260505215009 | 59 | 76 | 0.0 | 0.0 | 0.00 | 0.01 | 0.01 | 88 | 1007.5 |
| 20260505214524 | 59 | 76 | 0.0 | 0.0 | 0.00 | 0.01 | 0.01 | 88 | 1007.4 |
| 20260505214011 | 59 | 76 | 0.0 | 0.0 | 0.00 | 0.01 | 0.01 | 87 | 1007.5 |
| 20260505213507 | 59 | 315 | 0.0 | 0.0 | 0.00 | 0.01 | 0.01 | 88 | 1007.5 |
| 20260505213007 | 59 | 315 | 0.0 | 0.0 | 0.00 | 0.01 | 0.01 | 88 | 1007.5 |
| 20260505212504 | 59 | 302 | 0.0 | 0.0 | 0.00 | 0.01 | 0.01 | 88 | 1007.5 |
| 20260505212006 | 59 | 302 | 0.0 | 0.0 | 0.00 | 0.01 | 0.01 | 88 | 1007.6 |
| 20260505211510 | 59 | 302 | 0.0 | 0.0 | 0.00 | 0.01 | 0.01 | 88 | 1007.5 |
| 20260505211009 | 59 | 302 | 0.0 | 0.0 | 0.00 | 0.01 | 0.01 | 87 | 1007.5 |
| 20260505210510 | 59 | 302 | 0.0 | 0.0 | 0.01 | 0.01 | 0.01 | 87 | 1007.6 |
| 20260505210020 | 59 | 302 | 0.0 | 0.0 | 0.01 | 0.01 | 0.01 | 87 | 1007.6 |
| 20260505205509 | 60 | 302 | 0.0 | 0.0 | 0.01 | 0.01 | 0.01 | 87 | 1007.6 |
| 20260505205009 | 60 | 302 | 0.0 | 0.0 | 0.01 | 0.01 | 0.01 | 87 | 1007.8 |
| 20260505204527 | 60 | 302 | 0.0 | 0.0 | 0.01 | 0.01 | 0.01 | 87 | 1007.9 |
| 20260505204008 | 60 | 302 | 0.0 | 0.0 | 0.01 | 0.01 | 0.01 | 85 | 1007.9 |
| 20260505203510 | 60 | 302 | 0.0 | 0.0 | 0.01 | 0.01 | 0.01 | 85 | 1007.7 |
| 20260505203025 | 60 | 302 | 0.0 | 0.0 | 0.01 | 0.01 | 0.01 | 85 | 1007.6 |
| 20260505202512 | 61 | 302 | 0.0 | 0.0 | 0.01 | 0.01 | 0.01 | 84 | 1007.7 |
| 20260505202011 | 61 | 302 | 0.0 | 0.0 | 0.01 | 0.01 | 0.01 | 83 | 1007.7 |
| 20260505201510 | 61 | 304 | 0.0 | 0.0 | 0.01 | 0.01 | 0.01 | 82 | 1007.7 |
| 20260505201003 | 62 | 304 | 0.0 | 0.0 | 0.01 | 0.01 | 0.01 | 80 | 1007.6 |
| 20260505200506 | 63 | 293 | 0.0 | 0.0 | 0.00 | 0.00 | 0.00 | 76 | 1007.7 |
| 20260505200023 | 63 | 295 | 0.0 | 0.0 | 0.00 | 0.00 | 0.00 | 76 | 1007.7 |
| 20260505195502 | 64 | 295 | 0.0 | 0.0 | 0.00 | 0.00 | 0.00 | 76 | 1007.4 |
| 20260505195002 | 64 | 194 | 0.0 | 0.0 | 0.00 | 0.00 | 0.00 | 74 | 1007.3 |
| 20260505194504 | 64 | 194 | 0.0 | 0.0 | 0.00 | 0.00 | 0.00 | 73 | 1007.4 |
| 20260505194003 | 65 | 183 | 0.0 | 0.0 | 0.00 | 0.00 | 0.00 | 74 | 1007.5 |
| 20260505193503 | 65 | 173 | 0.0 | 0.0 | 0.00 | 0.00 | 0.00 | 71 | 1007.5 |
| 20260505193009 | 65 | 186 | 0.0 | 0.0 | 0.00 | 0.00 | 0.00 | 71 | 1007.6 |
| 20260505192505 | 65 | 186 | 0.0 | 0.0 | 0.00 | 0.00 | 0.00 | 72 | 1007.6 |
| 20260505192003 | 65 | 186 | 0.0 | 0.0 | 0.00 | 0.00 | 0.00 | 72 | 1007.6 |
| 20260505191508 | 65 | 189 | 0.0 | 0.0 | 0.00 | 0.00 | 0.00 | 71 | 1007.6 |
| 20260505191008 | 65 | 208 | 0.0 | 0.0 | 0.00 | 0.00 | 0.00 | 72 | 1007.6 |
| 20260505190504 | 65 | 190 | 0.0 | 0.0 | 0.00 | 0.00 | 0.00 | 71 | 1007.7 |
| 20260505190009 | 64 | 190 | 0.0 | 0.9 | 0.00 | 0.00 | 0.00 | 71 | 1007.7 |
| 20260505185507 | 65 | 190 | 0.0 | 2.6 | 0.00 | 0.00 | 0.00 | 71 | 1007.7 |
| 20260505185006 | 65 | 171 | 0.9 | 2.6 | 0.00 | 0.00 | 0.00 | 70 | 1007.8 |
| 20260505184523 | 64 | 195 | 0.0 | 0.0 | 0.00 | 0.00 | 0.00 | 71 | 1007.9 |
| 20260505184003 | 64 | 173 | 0.0 | 0.0 | 0.00 | 0.00 | 0.00 | 72 | 1007.9 |
| 20260505183503 | 64 | 184 | 0.0 | 0.0 | 0.00 | 0.00 | 0.00 | 74 | 1008.0 |
| 20260505183006 | 64 | 184 | 0.0 | 0.0 | 0.00 | 0.00 | 0.00 | 1008.1 | |
| 20260505182505 | 64 | 184 | 0.0 | 0.0 | 0.00 | 0.00 | 0.00 | 72 | 1008.2 |
| 20260505182003 | 64 | 184 | 0.0 | 0.0 | 0.00 | 0.00 | 0.00 | 72 | 1008.3 |
| 20260505181504 | 64 | 184 | 0.0 | 0.0 | 0.00 | 0.00 | 0.00 | 72 | 1008.2 |
| 20260505181006 | 64 | 167 | 0.0 | 1.7 | 0.00 | 0.00 | 0.00 | 71 | 1008.1 |
| 20260505180503 | 64 | 250 | 0.0 | 1.7 | 0.00 | 0.00 | 0.00 | 71 | 1008.2 |
| 20260505180008 | 64 | 247 | 0.0 | 0.0 | 0.00 | 0.00 | 0.00 | 72 | 1008.2 |
| 20260505175506 | 64 | 247 | 0.0 | 0.0 | 0.00 | 0.00 | 0.00 | 71 | 1008.1 |
| 20260505175007 | 64 | 242 | 0.0 | 0.0 | 0.00 | 0.00 | 0.00 | 71 | 1008.0 |
| 20260505174513 | 64 | 257 | 0.0 | 1.7 | 0.00 | 0.00 | 0.00 | 71 | 1008.0 |
| 20260505174007 | 64 | 257 | 0.9 | 1.7 | 0.00 | 0.00 | 0.00 | 69 | 1008.0 |
| 20260505173506 | 64 | 268 | 0.0 | 0.0 | 0.00 | 0.00 | 0.00 | 69 | 1007.9 |
| 20260505173021 | 65 | 268 | 0.0 | 0.0 | 0.00 | 0.00 | 0.00 | 69 | 1007.9 |
| 20260505172502 | 65 | 262 | 0.0 | 0.0 | 0.00 | 0.00 | 0.00 | 68 | 1007.9 |
| 20260505172003 | 66 | 257 | 0.0 | 1.7 | 0.00 | 0.00 | 0.00 | 66 | 1008.0 |
| 20260505171505 | 66 | 275 | 0.0 | 1.7 | 0.00 | 0.00 | 0.00 | 65 | 1008.0 |
| 20260505171004 | 66 | 272 | 0.0 | 0.0 | 0.00 | 0.00 | 0.00 | 67 | 1007.8 |
| 20260505170504 | 67 | 280 | 0.0 | 2.6 | 0.00 | 0.00 | 0.00 | 64 | 1007.9 |
| 20260505170010 | 67 | 186 | 0.0 | 2.6 | 0.00 | 0.00 | 0.00 | 63 | 1007.8 |
| 20260505165503 | 67 | 213 | 0.9 | 2.6 | 0.00 | 0.00 | 0.00 | 62 | 1007.8 |
| 20260505165004 | 67 | 259 | 0.9 | 2.6 | 0.00 | 0.00 | 0.00 | 64 | 1007.8 |
| 20260505164509 | 67 | 267 | 0.9 | 1.7 | 0.00 | 0.00 | 0.00 | 62 | 1007.8 |
| 20260505164006 | 68 | 246 | 0.9 | 2.6 | 0.00 | 0.00 | 0.00 | 63 | 1007.7 |
| 20260505163508 | 68 | 236 | 0.9 | 2.6 | 0.00 | 0.00 | 0.00 | 61 | 1007.7 |
| 20260505163014 | 68 | 252 | 0.9 | 3.5 | 0.00 | 0.00 | 0.00 | 61 | 1007.8 |
| 20260505162507 | 68 | 138 | 0.9 | 5.2 | 0.00 | 0.00 | 0.00 | 60 | 1007.7 |
| 20260505162009 | 68 | 186 | 3.5 | 5.2 | 0.00 | 0.00 | 0.00 | 59 | 1007.7 |
| 20260505161527 | 68 | 162 | 1.7 | 3.5 | 0.00 | 0.00 | 0.00 | 60 | 1007.7 |
| 20260505161004 | 68 | 173 | 0.9 | 3.5 | 0.00 | 0.00 | 0.00 | 61 | 1007.7 |
| 20260505160504 | 68 | 195 | 0.9 | 6.1 | 0.00 | 0.00 | 0.00 | 61 | 1007.7 |